Location: Newark
(49.8667°N, 4.3500°E)
Time: 10:25:30
(UTC+00:00)

N. Korean satellite - Visible Passes

Search period start: 14 October 2019 00:00
Search period end: 24 October 2019 00:00
Orbit: 455 x 508 km, 97.2° (Epoch: 13 October)

Date Brightness Start Highest point End Pass type
(mag) Time Alt. Az. Time Alt. Az. Time Alt. Az.
14 Oct 10.4 18:02:00 10° WSW 18:03:09 11° W 18:04:17 10° WNW visible
15 Oct 8.2 05:21:06 10° NNE 05:24:30 40° E 05:27:54 10° S visible
15 Oct 9.6 17:34:56 10° SW 17:37:37 21° W 17:40:19 10° NW visible
16 Oct 9.5 04:56:15 10° NE 04:59:04 22° E 05:01:55 10° SE visible
17 Oct 10.3 04:32:08 10° ENE 04:33:33 12° E 04:34:59 10° ESE visible
18 Oct 10.1 17:53:26 10° WSW 17:55:16 14° W 17:57:07 10° WNW visible
19 Oct 8.6 05:13:22 10° NNE 05:16:41 33° E 05:20:01 10° SSE visible
19 Oct 9.2 17:26:51 10° SSW 17:29:45 25° W 17:32:42 10° NW visible
20 Oct 9.8 04:48:38 10° NE 04:51:13 18° E 04:53:50 10° SE visible
22 Oct 7.5 05:30:40 10° NNE 05:34:13 54° E 05:37:49 10° S visible
22 Oct 9.9 17:45:04 10° SW 17:47:21 17° W 17:49:40 10° NW visible
23 Oct 9.0 05:05:38 10° NE 05:08:49 28° E 05:12:01 10° SSE visible
23 Oct 8.7 17:18:46 10° SSW 17:21:51 31° W 17:25:00 10° NNW visible
